[[{"header":{"parameterUnit":"m.s-1","parameterCategory":1,"la1":30.2991,"la2":30.254,"lo1":-89.0895,"lo2":-89.0444,"dy":0.0017,"dx":0.0017,"nx":28,"ny":28,"refTime":"2025-07-29T21:00:00:Z","depth":0,"parameterNumber":2,"parameterNumberName":"U-component_of_WINDS"},"data":[0,0,0,0,0,0,0,0,0,0,0,0,0,0,0,0,0,0,0,0,0,0,0,0,0,0,0,0,0,0,0,0,0,0,0,0,0,0,0,0,0,0,0,0,0,0,0,0,0,0,0,0,0,0,0,0,0,0,1.8953,1.8952,0,1.8862,1.8861,1.886,1.8719,1.8717,1.8714,1.8712,1.8621,1.8621,1.8621,0,0,0,0,0,0,0,0,0,0,0,0,0,1.9007,1.9007,1.8953,1.8952,1.895,1.8862,1.8861,1.886,1.872,1.8717,1.8713,1.8711,1.8621,1.8621,1.8621,0,0,0,0,0,0,0,0,0,0,0,0,0,1.8957,1.9007,1.8953,1.887,1.8861,1.8862,1.8861,1.8859,1.872,1.8716,1.8713,1.8709,1.8621,1.8621,1.8621,1.8696,0,0,1.862,1.862,0,0,0,0,0,0,0,0,1.896,1.8955,1.8883,1.8876,1.8866,1.8798,1.8846,1.8805,1.8721,1.8774,1.8712,1.8707,1.8683,1.8678,1.8669,1.8692,1.8688,1.862,1.862,1.862,1.862,0,0,0,0,0,0,0,1.8963,1.8958,1.8917,1.8882,1.8872,1.8838,1.8827,1.8838,1.8751,1.8769,1.8759,1.875,1.8678,1.8669,1.8666,1.8686,1.862,1.862,1.862,1.862,1.8768,1.8772,0,0,0,0,0,0,1.8979,1.8962,1.892,1.8914,1.8904,1.884,1.8827,1.8824,1.875,1.8735,1.8753,1.8743,1.8671,1.8666,1.8662,1.8747,1.862,1.862,1.862,1.8764,1.8769,1.8773,0,0,0,0,0,0,1.898,1.8976,1.8923,1.8935,1.8926,1.8843,1.884,1.8824,1.8815,1.8738,1.8722,1.8761,1.8668,1.8662,1.8689,1.8742,1.862,1.862,1.876,1.8766,1.8771,1.8917,0,0,0,0,0,0,1.8983,1.8978,1.9005,1.8937,1.8926,1.8952,1.8843,1.8825,1.8815,1.8802,1.8741,1.8727,1.8665,1.869,1.8689,1.874,1.862,1.8754,1.8762,1.8769,1.8908,1.8928,1.8945,0,0,0,0,0,1.8985,1.905,1.9007,1.9003,1.8958,1.8955,1.8949,1.8875,1.882,1.8848,1.8798,1.8729,1.8736,1.8694,1.8691,1.8743,1.8751,1.876,1.8769,1.8899,1.8924,1.8944,0,0,0,0,0,0,1.9127,1.9039,1.8991,1.9036,1.9004,1.8931,1.8963,1.8903,1.8886,1.8875,1.8784,1.8772,1.8811,1.8778,1.8733,1.8813,1.8733,1.8742,1.8833,1.8855,1.8874,1.8882,1.862,0,0,0,0,0,1.9164,1.9168,1.9091,1.9138,1.9124,1.9047,1.9043,1.8989,1.8952,1.8938,1.889,1.8859,1.8853,1.8852,1.8843,1.8901,1.8887,1.8936,1.8954,1.897,1.898,1.9011,1.9032,1.8803,1.8803,1.8803,0,0,1.924,1.9192,1.92,1.9165,1.9134,1.9142,1.9037,1.9049,1.9054,1.894,1.8963,1.8927,1.8885,1.8929,1.8946,1.8904,1.9039,1.8981,1.8995,1.8996,1.9022,1.9044,1.9063,1.8809,1.8808,1.8807,0,0,1.9382,1.9345,1.9381,1.9352,1.9306,1.9255,1.9264,1.92,1.9172,1.9193,1.9108,1.9113,1.9105,1.908,1.9066,1.9199,1.9136,1.9198,1.9297,1.9328,1.9346,1.9362,1.9412,1.9431,1.9208,1.9208,1.9208,0,1.9483,1.949,1.9408,1.9426,1.9414,1.931,1.9347,1.9322,1.9277,1.9271,1.9224,1.9213,1.9178,1.9215,1.9248,1.9239,1.9248,1.9206,1.935,1.9365,1.9378,1.9425,1.9444,1.9216,1.9215,1.9214,1.9214,0,1.9617,1.9623,1.9658,1.9616,1.9607,1.9635,1.9558,1.9559,1.9505,1.9459,1.9483,1.9436,1.9417,1.9421,1.9368,1.9451,1.9427,1.9366,1.9285,1.941,1.9452,1.9469,1.9228,1.9225,1.9222,1.922,0,0,1.9849,1.976,1.9775,1.9755,1.9697,1.9701,1.9724,1.9704,1.9708,1.9679,1.9698,1.9694,1.9638,1.9622,1.9566,1.9593,1.9704,1.9529,1.9526,1.9566,1.9796,1.9844,1.9866,1.9661,1.9664,1.9666,1.98,0,1.9982,2.0016,1.9942,1.9995,2.0001,1.9903,1.9922,1.989,1.9847,1.9846,1.9798,1.9798,1.9723,1.9713,1.9735,1.9686,1.975,1.9675,1.9679,1.9681,1.9696,1.9888,1.9939,2.0068,1.9816,1.9819,1.9821,0,2.0142,2.0122,2.0175,2.0115,2.0114,2.0134,2.0111,2.0111,2.0072,2.0039,2.0022,1.9955,1.9975,1.9894,1.9921,1.9872,1.9868,1.9845,1.9848,1.9848,1.9761,1.9896,2.0106,2.0128,1.9846,1.9844,1.9842,0,2.031,2.0295,2.0326,2.0312,2.0241,2.0258,2.0229,2.0186,2.0179,2.0159,2.0154,2.0136,2.0128,2.0116,2.0047,1.9994,2.0083,1.9996,2.0058,2.0061,2.0084,2.0084,2.03,2.0077,2.0077,2.0076,2.0076,0,2.0468,2.0505,2.04,2.042,2.0459,2.0374,2.0415,2.0377,2.034,2.035,2.0263,2.0275,2.0182,2.0184,2.013,2.0162,2.0158,2.0133,2.0119,2.0143,2.0147,2.0142,2.0133,2.0081,2.008,2.0079,2.0079,0,2.0664,2.0594,2.0622,2.0552,2.0536,2.0568,2.0509,2.0525,2.0475,2.049,2.0489,2.0413,2.0411,2.034,2.0323,2.0287,2.0343,2.031,2.0357,2.0348,2.0415,2.0411,2.0639,2.0665,2.0423,2.0425,2.0427,0,2.0771,2.0797,2.0731,2.0732,2.0707,2.0709,2.0702,2.0619,2.0616,2.0573,2.0595,2.0586,2.0574,2.0576,2.052,2.0507,2.0476,2.0556,2.0474,2.0498,2.0481,2.0482,2.0485,2.0575,2.0578,2.0581,2.0583,0,2.097,2.0934,2.0927,2.0908,2.0902,2.0883,2.0859,2.0865,2.0774,2.0774,2.0771,2.0763,2.0746,2.0739,2.0716,2.0687,2.0622,2.0609,2.0623,2.065,2.0677,2.0666,2.0408,2.0605,2.0603,2.0601,2.06,2.0599,2.1127,2.1146,2.1103,2.1098,2.1071,2.105,2.1062,2.1014,2.101,2.099,2.0941,2.0947,2.0907,2.0869,2.0846,2.085,2.081,2.083,2.0835,2.0843,2.0857,2.0673,2.0845,2.0844,2.0844,2.0843,2.0842,0,2.1324,2.1291,2.1287,2.1256,2.1253,2.1189,2.1159,2.1161,2.1167,2.1135,2.1125,2.1123,2.1116,2.1059,2.1045,2.1059,2.1029,2.1059,2.1059,2.1054,2.0892,2.0883,2.1084,2.1084,2.1084,2.1084,2.1084,2.1084,2.1427,2.1458,2.1417,2.1434,2.14,2.1405,2.1394,2.1375,2.1349,2.135,2.1344,2.1306,2.1265,2.1247,2.1238,2.1222,2.1222,2.1263,2.1237,2.1088,2.1065,2.1043,2.1034,2.1263,2.1264,2.1399,2.14,2.1401]},{"header":{"parameterUnit":"m.s-1","parameterCategory":1,"la1":30.2991,"la2":30.254,"lo1":-89.0895,"lo2":-89.0444,"dy":0.0017,"dx":0.0017,"nx":28,"ny":28,"refTime":"2025-07-29T21:00:00:Z","depth":0,"parameterNumber":3,"parameterNumberName":"V-component_of_WINDS"},"data":[0,0,0,0,0,0,0,0,0,0,0,0,0,0,0,0,0,0,0,0,0,0,0,0,0,0,0,0,0,0,0,0,0,0,0,0,0,0,0,0,0,0,0,0,0,0,0,0,0,0,0,0,0,0,0,0,0,0,-1.8281,-1.8282,0,-1.8337,-1.8338,-1.8338,-1.8328,-1.8327,-1.8326,-1.8325,-1.8382,-1.8385,-1.8387,0,0,0,0,0,0,0,0,0,0,0,0,0,-1.8166,-1.8168,-1.8281,-1.8282,-1.8283,-1.8337,-1.8338,-1.8338,-1.8328,-1.8327,-1.8326,-1.8325,-1.8382,-1.8384,-1.8387,0,0,0,0,0,0,0,0,0,0,0,0,0,-1.8218,-1.8169,-1.8281,-1.8284,-1.8285,-1.8337,-1.8338,-1.8339,-1.8328,-1.8327,-1.8325,-1.8324,-1.8381,-1.8384,-1.8388,-1.844,0,0,-1.8399,-1.8401,0,0,0,0,0,0,0,0,-1.8215,-1.8223,-1.8283,-1.8284,-1.8285,-1.8324,-1.8318,-1.8373,-1.8329,-1.8312,-1.8325,-1.8323,-1.8364,-1.8369,-1.8383,-1.8443,-1.8446,-1.8399,-1.8402,-1.8403,-1.8404,0,0,0,0,0,0,0,-1.8212,-1.822,-1.8303,-1.8284,-1.8285,-1.8283,-1.8288,-1.8328,-1.8346,-1.8313,-1.8313,-1.8319,-1.8364,-1.8379,-1.8384,-1.8446,-1.8399,-1.8403,-1.8405,-1.8406,-1.8553,-1.8555,0,0,0,0,0,0,-1.8207,-1.8217,-1.8301,-1.8305,-1.8246,-1.8286,-1.8292,-1.8313,-1.8345,-1.8349,-1.8321,-1.8319,-1.8374,-1.838,-1.8386,-1.845,-1.8403,-1.8407,-1.8409,-1.8551,-1.8553,-1.8555,0,0,0,0,0,0,-1.8205,-1.8215,-1.8299,-1.8261,-1.8271,-1.8289,-1.8313,-1.8315,-1.833,-1.8351,-1.8354,-1.8333,-1.8373,-1.8381,-1.8427,-1.8452,-1.8408,-1.8412,-1.8549,-1.8552,-1.8554,-1.8578,0,0,0,0,0,0,-1.8202,-1.8214,-1.8234,-1.8261,-1.8274,-1.8339,-1.8314,-1.8317,-1.8336,-1.8334,-1.8363,-1.8366,-1.8372,-1.8422,-1.8431,-1.8456,-1.8415,-1.8547,-1.8551,-1.8554,-1.8575,-1.8581,-1.8587,0,0,0,0,0,-1.8197,-1.8239,-1.8235,-1.8245,-1.8299,-1.8341,-1.8348,-1.8354,-1.8338,-1.8359,-1.8372,-1.8365,-1.8448,-1.8426,-1.8437,-1.8464,-1.8546,-1.855,-1.8553,-1.8573,-1.858,-1.8586,0,0,0,0,0,0,-1.8214,-1.8242,-1.8239,-1.829,-1.8313,-1.8339,-1.8365,-1.8361,-1.8389,-1.8386,-1.8393,-1.8399,-1.8446,-1.8459,-1.8435,-1.8516,-1.8495,-1.8501,-1.8506,-1.8513,-1.8519,-1.8515,-1.8418,0,0,0,0,0,-1.8223,-1.8254,-1.8278,-1.8321,-1.8332,-1.8347,-1.8365,-1.8368,-1.8392,-1.8402,-1.8419,-1.8442,-1.8474,-1.8494,-1.8524,-1.8577,-1.8584,-1.8601,-1.8606,-1.8611,-1.8616,-1.8646,-1.8654,-1.8568,-1.8568,-1.8568,0,0,-1.8243,-1.8263,-1.8282,-1.8324,-1.8343,-1.8375,-1.8355,-1.839,-1.8414,-1.8407,-1.8452,-1.8465,-1.8492,-1.8542,-1.8565,-1.8555,-1.8641,-1.8616,-1.8619,-1.8622,-1.8651,-1.8659,-1.8666,-1.857,-1.857,-1.8569,0,0,-1.8296,-1.8314,-1.8352,-1.8371,-1.8398,-1.8408,-1.8417,-1.8443,-1.8452,-1.8497,-1.8492,-1.8521,-1.8575,-1.8594,-1.8611,-1.8672,-1.8667,-1.8682,-1.8711,-1.874,-1.8747,-1.8753,-1.8775,-1.8783,-1.8687,-1.8687,-1.8687,0,-1.8318,-1.8366,-1.8372,-1.8408,-1.8427,-1.8421,-1.846,-1.8478,-1.8514,-1.8527,-1.8515,-1.8583,-1.8601,-1.8655,-1.867,-1.8684,-1.8695,-1.8679,-1.8745,-1.8751,-1.8757,-1.8778,-1.8787,-1.8689,-1.8688,-1.8688,-1.8688,0,-1.8391,-1.8425,-1.8452,-1.8488,-1.851,-1.8547,-1.8558,-1.858,-1.8581,-1.8591,-1.8637,-1.8658,-1.8693,-1.8706,-1.8707,-1.8761,-1.8754,-1.8743,-1.8722,-1.8767,-1.8787,-1.8795,-1.8691,-1.869,-1.869,-1.8689,0,0,-1.8456,-1.8494,-1.8504,-1.852,-1.855,-1.8577,-1.8614,-1.8647,-1.8666,-1.8691,-1.8723,-1.8768,-1.8759,-1.8778,-1.8781,-1.8807,-1.8854,-1.8793,-1.8794,-1.8804,-1.8916,-1.8924,-1.8933,-1.8851,-1.8853,-1.8854,-1.8914,0,-1.8513,-1.8578,-1.8584,-1.8642,-1.8674,-1.8669,-1.8702,-1.8724,-1.8735,-1.8763,-1.8775,-1.8808,-1.8793,-1.8804,-1.8829,-1.8843,-1.8877,-1.8839,-1.8881,-1.8882,-1.8874,-1.8944,-1.8952,-1.9008,-1.8922,-1.8923,-1.8924,0,-1.8587,-1.8614,-1.8676,-1.8702,-1.8716,-1.8744,-1.8776,-1.8803,-1.8828,-1.8835,-1.8856,-1.8856,-1.8895,-1.8871,-1.8925,-1.8899,-1.8916,-1.8926,-1.8928,-1.8932,-1.8906,-1.895,-1.9025,-1.9034,-1.8936,-1.8935,-1.8934,0,-1.8629,-1.8681,-1.8724,-1.8738,-1.877,-1.879,-1.8805,-1.8828,-1.8848,-1.8876,-1.8889,-1.8921,-1.8938,-1.8963,-1.8972,-1.8954,-1.9025,-1.9002,-1.9031,-1.9031,-1.9047,-1.9046,-1.9126,-1.9057,-1.9057,-1.9057,-1.9057,0,-1.8691,-1.8729,-1.8744,-1.8771,-1.8813,-1.882,-1.8862,-1.8875,-1.8896,-1.8926,-1.8924,-1.8952,-1.8962,-1.8991,-1.8999,-1.9042,-1.905,-1.9056,-1.9058,-1.9057,-1.9056,-1.9068,-1.9065,-1.9059,-1.9059,-1.9058,-1.9058,0,-1.8745,-1.8756,-1.8804,-1.883,-1.8837,-1.8867,-1.889,-1.8916,-1.8926,-1.8964,-1.8973,-1.899,-1.9025,-1.9036,-1.9078,-1.9083,-1.9134,-1.9132,-1.9125,-1.9126,-1.9155,-1.9152,-1.9247,-1.926,-1.9182,-1.9182,-1.9183,0,-1.8784,-1.8813,-1.8842,-1.8862,-1.8877,-1.8909,-1.8929,-1.8937,-1.8958,-1.8989,-1.9012,-1.9047,-1.9075,-1.9131,-1.9147,-1.9179,-1.9178,-1.9209,-1.9183,-1.9181,-1.9179,-1.9178,-1.9181,-1.9214,-1.9215,-1.9215,-1.9216,0,-1.8853,-1.8857,-1.8886,-1.8918,-1.8942,-1.8967,-1.8992,-1.9008,-1.9019,-1.9044,-1.9079,-1.9101,-1.9144,-1.9179,-1.9212,-1.9227,-1.9224,-1.9224,-1.9233,-1.9232,-1.9227,-1.9231,-1.9139,-1.9222,-1.9221,-1.9221,-1.9221,-1.922,-1.8901,-1.8927,-1.8951,-1.8984,-1.9003,-1.9026,-1.9052,-1.9066,-1.9096,-1.9131,-1.9134,-1.9173,-1.9198,-1.9242,-1.9259,-1.9289,-1.9281,-1.9293,-1.9296,-1.9299,-1.9302,-1.9222,-1.9295,-1.9295,-1.9295,-1.9295,-1.9295,0,-1.897,-1.8986,-1.9016,-1.905,-1.9076,-1.907,-1.9097,-1.9119,-1.9153,-1.9177,-1.9204,-1.9246,-1.9279,-1.9298,-1.9332,-1.9353,-1.9352,-1.9361,-1.936,-1.9364,-1.9307,-1.9297,-1.9361,-1.9361,-1.9361,-1.9361,-1.9361,-1.9361,-1.9009,-1.9053,-1.906,-1.9113,-1.9128,-1.9166,-1.9182,-1.9203,-1.9222,-1.9268,-1.9296,-1.9308,-1.933,-1.9365,-1.9396,-1.94,-1.9413,-1.9423,-1.9427,-1.9374,-1.9368,-1.9361,-1.9351,-1.9426,-1.9426,-1.9481,-1.9482,-1.9482]}]]